Tracking 31027 objects as of 19-Jul-2025
HD Live streaming from Space Station
objects crossing your sky now

OBJECT C

Track OBJECT C now!
10-day predictions


NORAD ID: 61240
Int'l Code: 2024-174C
Perigee: 501.0 km
Apogee: 518.8 km
Inclination: 97.4 °
Period: 94.7 minutes
Semi major axis: 6880 km
RCS: Unknown
Launch date: September 24, 2024
Source: People's Republic of China (PRC)
Launch site: Jiuquan Satellite Launch Center, China (JSC)
Your satellite tracking list
Your tracking list is empty




NASA's NSSDC Master Catalog

Two Line Element Set (TLE):
1 61240U 24174C   25199.93954188  .00004312  00000-0  19717-3 0  9992
2 61240  97.4457 206.9824 0012952 331.7422  28.3110 15.21011666 45040
Source of the keplerian elements: AFSPC